COOK1: Arkansas River Nr Coolidge, KS

                                SHEF ID:       COOK1     ARKANSAS R NR COOLIDGE, KS
STATION TYPE:
Regulating: Stage = 8.00, Flow = 2041

PRECIP STAGE STAGE(2) RIV-FLOW WTR-TEMP CONDUCT BAT-LOAD
in ft ft cfs F umho/cm volt
Ccp-Rev Ccp-Rev Ccp-Rev Ccp-Rev Ccp-Rev Ccp-Rev Ccp-Rev
(America/Chicago)
08/20 00:00 0.00 2.65 2.55 63 75.15 6061 13.00
08/20 01:00 0.00 2.65 2.54 63 74.39 6079 12.95
08/20 02:00 0.00 2.65 2.54 63 73.58 6100 12.95
08/20 03:00 0.00 2.64 2.53 62 72.86 6127 12.89
08/20 04:00 0.00 2.66 2.53 63 72.05 6156 12.89
08/20 05:00 0.00 2.64 2.54 62 71.19 6172 12.89
08/20 06:00 0.00 2.65 2.53 63 70.38 6179 12.89
08/20 07:00 0.00 2.65 2.53 63 69.84 6187 12.83
08/20 08:00 0.00 2.64 2.53 62 69.67 6197 12.83
08/20 09:00 0.00 2.65 2.54 63 69.67 6205 12.83
08/20 10:00 0.00 2.65 2.54 63 69.96 6203 13.00
08/20 11:00 0.00 2.66 2.55 63 71.87 6205 13.71
08/20 12:00 0.00 2.67 2.56 64 74.66 6219 13.77
08/20 13:00 0.00 2.65 2.57 63 77.27 6226 13.83
08/20 14:00 0.00 2.69 2.58 66 79.95 6221 13.83
08/20 15:00 0.00 2.68 2.57 65 82.42 6201 13.83
08/20 16:00 0.00 2.68 2.60 65 83.97 6172 13.77
08/20 17:00 0.00 2.68 2.58 65 84.79 6129 13.48
08/20 18:00 0.00 2.67 2.57 64 84.60 6089 13.30
08/20 19:00 0.00 2.67 2.57 64 83.61 6077 13.18
08/20 20:00 0.00 2.67 2.56 64 81.97 6095 13.12
08/20 21:00 0.00 2.64 2.56 62 80.35 6131 13.07
08/20 22:00 0.00 2.65 2.55 63 79.12 6142 13.00
08/20 23:00 ---- ---- ---- ---- ---- ---- ----
Data processed at Wed 21Aug2024 04:30 GMT

Parsing this webpage?

Checkout our new Data API! CWMSDataAPI (CDA)

Timeseries IDs (TSIDs)

TSIDs used from left to right in the data table
COOL.Precip-Inc.Total.1Hour.1Hour.Ccp-Rev
COOL.Stage.Inst.1Hour.0.Ccp-Rev
COOL.Stage-Alt.Inst.1Hour.0.Ccp-Rev
COOL.Flow.Inst.1Hour.0.Ccp-Rev
COOL.Temp-Water.Inst.1Hour.0.Ccp-Rev
COOL.Cond.Inst.1Hour.0.Ccp-Rev
COOL.Volt-Battery Load.Inst.1Hour.0.Ccp-Rev

                            

All information presented herein is the property of the government of the United States of America and may be revised or deleted at any time without prior notice. Dissemination of this information without the expressed written consent of the Public Affairs Office, Tulsa District U.S. Army Corps of Engineers is strictly prohibited. These data are gathered electronically and, as presented, have NOT undergone any form of quality control. These data are NOT guaranteed to be valid or correct.